Weather History for Falfurrias, TX

Change the Weather History Date:

Tuesday, March 6, 2012

  Actual Average (KNQI) Record (KNQI)
Temperature  
Mean Temperature 68 °F -  
Max Temperature 80 °F 72 °F 87 °F (2006)
Min Temperature 57 °F 53 °F 34 °F (2007)
Cooling Degree Days 4    
Growing Degree Days 18 (Base 50)    
Moisture  
Dew Point 54 °F    
Average Humidity 61    
Maximum Humidity 88    
Minimum Humidity 32    
Precipitation  
Precipitation 0.00 in - - ()
Sea Level Pressure  
Sea Level Pressure 30.10 in    
Wind  
Wind Speed 11 mph (SE)    
Max Wind Speed 26 mph    
Max Gust Speed 38 mph    
Visibility 10 miles    
Events      
Averages and records for this station are not official NWS values.
T = Trace of Precipitation, MM = Missing Value Source: NWS Daily Summary

Daily Weather History Graph

Daily Weather History Graph

Search for Another Location

Airport:

Trip Planner

Search our weather history database for the weather conditions in past years. The results will help you decide how hot, cold, wet, or windy it might be!

Date:

Astronomy

Mar. 06, 2012 Rise Set
Actual Time 6:50 AM CST 6:36 PM CST
Civil Twilight 6:27 AM CST 6:59 PM CST
Nautical Twilight 6:00 AM CST 7:26 PM CST
Astronomical Twilight 5:33 AM CST 7:53 PM CST
Moon 5:09 PM CST (3/6) 5:20 AM CST (3/6)
Length of Visible Light 12h 32m
Length of Day
11h 45m
Waxing Gibbous, 96% of the Moon is Illuminated
Mar 6
Waxing Gibbous
Mar 8
Full
Mar 14
Last Quarter
Mar 22
New
Mar 30
First Quarter

Hourly Weather History & Observations

Time (CST) Temp. Dew Point Humidity Pressure Visibility Wind Dir Wind Speed Gust Speed Precip Events Conditions
12:15 AM 60.8 °F 53.6 °F 77% 30.24 in 10.0 mi ESE 5.8 mph - N/A   Clear
12:35 AM 60.8 °F 53.6 °F 77% 30.24 in 10.0 mi ESE 6.9 mph - N/A   Clear
12:55 AM 60.8 °F 53.6 °F 77% 30.23 in 10.0 mi ESE 5.8 mph - N/A   Clear
1:15 AM 60.8 °F 53.6 °F 77% 30.22 in 10.0 mi ESE 6.9 mph - N/A   Clear
1:35 AM 59.0 °F 53.6 °F 82% 30.22 in 10.0 mi ESE 5.8 mph - N/A   Clear
1:55 AM 59.0 °F 53.6 °F 82% 30.20 in 10.0 mi SE 6.9 mph - N/A   Clear
2:15 AM 59.0 °F 53.6 °F 82% 30.19 in 10.0 mi ESE 6.9 mph - N/A   Clear
2:35 AM 59.0 °F 53.6 °F 82% 30.18 in 10.0 mi ESE 6.9 mph - N/A   Clear
3:15 AM 60.8 °F 53.6 °F 77% 30.16 in 10.0 mi SE 8.1 mph - N/A   Clear
3:35 AM 60.8 °F 53.6 °F 77% 30.16 in 10.0 mi SE 6.9 mph - N/A   Clear
3:55 AM 60.8 °F 53.6 °F 77% 30.16 in 10.0 mi SE 5.8 mph - N/A   Clear
4:15 AM 60.8 °F 53.6 °F 77% 30.15 in 10.0 mi SE 6.9 mph - N/A   Clear
4:35 AM 59.0 °F 53.6 °F 82% 30.14 in 10.0 mi SE 6.9 mph - N/A   Clear
4:55 AM 59.0 °F 53.6 °F 82% 30.14 in 10.0 mi SE 5.8 mph - N/A   Clear
5:15 AM 59.0 °F 53.6 °F 82% 30.14 in 10.0 mi SE 3.5 mph - N/A   Clear
5:35 AM 57.2 °F 53.6 °F 88% 30.14 in 10.0 mi SE 4.6 mph - N/A   Clear
5:55 AM 57.2 °F 53.6 °F 88% 30.14 in 10.0 mi SE 4.6 mph - N/A   Clear
6:15 AM 59.0 °F 53.6 °F 82% 30.15 in 10.0 mi SE 4.6 mph - N/A   Clear
6:35 AM 59.0 °F 53.6 °F 82% 30.15 in 10.0 mi ESE 4.6 mph - N/A   Clear
6:55 AM 59.0 °F 53.6 °F 82% 30.14 in 10.0 mi SE 5.8 mph - N/A   Clear
7:15 AM 59.0 °F 53.6 °F 82% 30.15 in 10.0 mi ESE 5.8 mph - N/A   Clear
7:35 AM 59.0 °F 53.6 °F 82% 30.15 in 10.0 mi ESE 3.5 mph - N/A   Clear
7:55 AM 60.8 °F 55.4 °F 82% 30.16 in 10.0 mi SE 5.8 mph - N/A   Clear
8:15 AM 64.4 °F 55.4 °F 73% 30.16 in 10.0 mi SE 9.2 mph - N/A   Clear
8:35 AM 64.4 °F 55.4 °F 73% 30.16 in 10.0 mi SE 9.2 mph - N/A   Clear
8:55 AM 68.0 °F 55.4 °F 64% 30.16 in 10.0 mi SSE 11.5 mph 19.6 mph N/A   Clear
9:15 AM 69.8 °F 57.2 °F 64% 30.17 in 7.0 mi SSE 15.0 mph 23.0 mph N/A   Clear
9:35 AM 71.6 °F 57.2 °F 60% 30.16 in 7.0 mi SSE 18.4 mph 24.2 mph N/A   Scattered Clouds
9:55 AM 73.4 °F 57.2 °F 57% 30.16 in 10.0 mi SSE 18.4 mph 26.5 mph N/A   Scattered Clouds
10:15 AM 73.4 °F 55.4 °F 53% 30.16 in 10.0 mi SE 21.9 mph 32.2 mph N/A   Scattered Clouds
10:35 AM 73.4 °F 55.4 °F 53% 30.16 in 10.0 mi SSE 20.7 mph 26.5 mph N/A   Mostly Cloudy
10:55 AM 73.4 °F 55.4 °F 53% 30.16 in 10.0 mi SSE 20.7 mph 28.8 mph N/A   Mostly Cloudy
11:15 AM 75.2 °F 55.4 °F 50% 30.15 in 10.0 mi SSE 17.3 mph 23.0 mph N/A   Scattered Clouds
11:35 AM 77.0 °F 51.8 °F 41% 30.14 in 10.0 mi SSE 20.7 mph 31.1 mph N/A   Mostly Cloudy
11:55 AM 77.0 °F 51.8 °F 41% 30.13 in 10.0 mi SE 21.9 mph 27.6 mph N/A   Mostly Cloudy
12:15 PM 78.8 °F 51.8 °F 39% 30.11 in 10.0 mi South 23.0 mph 29.9 mph N/A   Mostly Cloudy
12:35 PM 78.8 °F 51.8 °F 39% 30.10 in 7.0 mi SSE 13.8 mph 25.3 mph N/A   Mostly Cloudy
12:55 PM 78.8 °F 50.0 °F 36% 30.08 in 10.0 mi SSE 21.9 mph 31.1 mph N/A   Scattered Clouds
1:15 PM 78.8 °F 50.0 °F 36% 30.06 in 7.0 mi SE 18.4 mph 27.6 mph N/A   Scattered Clouds
1:35 PM 80.6 °F 50.0 °F 34% 30.05 in 10.0 mi SSE 20.7 mph 27.6 mph N/A   Scattered Clouds
1:55 PM 80.6 °F 50.0 °F 34% 30.03 in 10.0 mi SSE 19.6 mph 27.6 mph N/A   Clear
2:15 PM 80.6 °F 48.2 °F 32% 30.02 in 10.0 mi SE 23.0 mph 27.6 mph N/A   Clear
2:35 PM 80.6 °F 48.2 °F 32% 30.01 in 10.0 mi SE 23.0 mph 28.8 mph N/A   Clear
2:55 PM 80.6 °F 50.0 °F 34% 30.00 in 10.0 mi SE 18.4 mph 26.5 mph N/A   Clear
3:15 PM 80.6 °F 50.0 °F 34% 29.99 in 10.0 mi SSE 24.2 mph 29.9 mph N/A   Clear
3:35 PM 80.6 °F 50.0 °F 34% 29.99 in 10.0 mi SSE 21.9 mph 29.9 mph N/A   Clear
3:55 PM 78.8 °F 51.8 °F 39% 29.99 in 10.0 mi SE 21.9 mph 38.0 mph N/A   Scattered Clouds
4:15 PM 78.8 °F 51.8 °F 39% 29.98 in 10.0 mi SSE 21.9 mph 27.6 mph N/A   Scattered Clouds
4:35 PM 78.8 °F 50.0 °F 36% 29.97 in 10.0 mi SE 19.6 mph 28.8 mph N/A   Scattered Clouds
4:55 PM 78.8 °F 50.0 °F 36% 29.98 in 10.0 mi SE 26.5 mph 31.1 mph N/A   Scattered Clouds
5:15 PM 77.0 °F 51.8 °F 41% 29.98 in 10.0 mi SE 19.6 mph 26.5 mph N/A   Scattered Clouds
5:35 PM 77.0 °F 55.4 °F 47% 29.99 in 10.0 mi SE 18.4 mph 27.6 mph N/A   Mostly Cloudy
5:55 PM 73.4 °F 55.4 °F 53% 29.99 in 10.0 mi ESE 23.0 mph 27.6 mph N/A   Scattered Clouds
6:15 PM 73.4 °F 55.4 °F 53% 30.00 in 10.0 mi ESE 17.3 mph 27.6 mph N/A   Mostly Cloudy
6:35 PM 71.6 °F 55.4 °F 57% 30.00 in 10.0 mi SE 15.0 mph 23.0 mph N/A   Overcast
6:55 PM 71.6 °F 57.2 °F 60% 30.00 in 10.0 mi ESE 18.4 mph 23.0 mph N/A   Mostly Cloudy
7:15 PM 71.6 °F 57.2 °F 60% 30.00 in 10.0 mi SE 16.1 mph 21.9 mph N/A   Scattered Clouds
7:35 PM 71.6 °F 59.0 °F 64% 30.01 in 10.0 mi SE 16.1 mph 21.9 mph N/A   Mostly Cloudy
7:55 PM 71.6 °F 59.0 °F 64% 30.02 in 10.0 mi SE 13.8 mph 18.4 mph N/A   Mostly Cloudy
8:15 PM 69.8 °F 59.0 °F 68% 30.03 in 10.0 mi SE 11.5 mph 20.7 mph N/A   Scattered Clouds
8:35 PM 68.0 °F 60.8 °F 78% 30.04 in 10.0 mi ESE 8.1 mph - N/A   Scattered Clouds
8:55 PM 68.0 °F 60.8 °F 78% 30.04 in 10.0 mi ESE 6.9 mph - N/A   Scattered Clouds
9:15 PM 68.0 °F 60.8 °F 78% 30.04 in 10.0 mi ESE 8.1 mph - N/A   Mostly Cloudy
9:55 PM 68.0 °F 60.8 °F 78% 30.04 in 10.0 mi SE 9.2 mph - N/A   Scattered Clouds
10:15 PM 68.0 °F 60.8 °F 78% 30.03 in 10.0 mi SE 10.4 mph - N/A   Scattered Clouds
10:35 PM 68.0 °F 60.8 °F 78% 30.03 in 10.0 mi SE 12.7 mph 17.3 mph N/A   Scattered Clouds
10:55 PM 68.0 °F 60.8 °F 78% 30.03 in 10.0 mi SE 15.0 mph - N/A   Clear
11:15 PM 68.0 °F 60.8 °F 78% 30.02 in 10.0 mi SE 13.8 mph 19.6 mph N/A   Clear
11:35 PM 68.0 °F 60.8 °F 78% 30.02 in 10.0 mi SE 9.2 mph - N/A   Clear
11:55 PM 68.0 °F 60.8 °F 78% 30.02 in 10.0 mi SE 9.2 mph - N/A   Mostly Cloudy